Regional Weather Roundup
Issued by NWS Nashville, TN

Home | Current Version | Previous Version | Text Only | Print | Product List | Glossary On
Versions: 1 2 3 4 5 6 7 8 9 10 11 12 13 14 15 16 17 18 19 20 21 22 23 24 25 26 27 28 29 30 31 32 33 34 35 36 37 38 39 40 41 42 43 44 45 46 47 48 49 50
000
ASUS44 KOHX 061715
RWROHX
MIDDLE TENNESSEE HOURLY WEATHER ROUNDUP
NATIONAL WEATHER SERVICE NASHVILLE TN
1200 PM CDT WED MAY 06 2015

NOTE: "FAIR" INDICATES FEW OR NO CLOUDS BELOW 12,000 FEET WITH
NO SIGNIFICANT WEATHER AND/OR OBSTRUCTIONS TO VISIBILITY.

* THESE REPORTS ARE NOT UNDER NWS QUALITY CONTROL AND MAY NOT
  REPORT WEATHER SUCH AS PRECIPITATION AND FOG.


TNZ005>011-023>034-057-059-062>066-078-080-061800
...NORTHERN MIDDLE TENNESSEE...

CITY           SKY/WX    TMP DP  RH WIND       PRES   REMARKS
CLARKSVILLE    PTSUNNY   80  58  46 CALM      30.19F
CROSSVILLE     MOSUNNY   76  50  40 CALM      30.24F
NASHVILLE      MOSUNNY   83  55  38 S3        30.20F
PORTLAND       SUNNY     79  57  47 W3        30.20F
ROCKWOOD       SUNNY     79  57  46 S6        30.23F
SMYRNA         MOSUNNY   82  55  39 SW5       30.20F
SPARTA         SUNNY     82  59  44 VRB5      30.21F
$$
TNZ056-058-060-061-075>077-079-093>097-061800
...SOUTHERN MIDDLE TENNESSEE...

CITY           SKY/WX    TMP DP  RH WIND       PRES   REMARKS
COLUMBIA       MOSUNNY   82  55  39 S8        30.19F
LEWISBURG      MOSUNNY   82  52  35 VRB5      30.20F
MCMINNVILLE    SUNNY     81  55  41 VRB3      30.22F
SHELBYVILLE    MOSUNNY   81  55  41 CALM      30.22S
TULLAHOMA      MOSUNNY   79  50  36 S6        30.22F
WINCHESTER     MOSUNNY   81  52  36 VRB5      30.21F
$$


...KEY TO REMARKS...
VSB - VISIBILITY IN MILES
WCI - WIND CHILL INDEX
HX  - HEAT INDEX




USA.gov is the U.S. government's official web portal to all federal, state and local government web resources and services.